This is the latest recevied weather packets stored in our database for station/object EA1GHG-11. If no packets are shown the sender has not sent any weather packets the latest 10 day(s).
| Time | Temp. | Humidity | Pressure | Rain* | Wind** | Luminosity | Snow |
|---|---|---|---|---|---|---|---|
| 1777867615 | 10.56° C | 100% | 1018.3 hPa | - | - | - | - |
| 1777866115 | 10° C | 100% | 1018.3 hPa | - | - | - | - |
| 1777864615 | 9.44° C | 100% | 1018.3 hPa | - | - | - | - |
| 1777863115 | 9.44° C | 100% | 1018.4 hPa | - | - | - | - |
| 1777861615 | 9.44° C | 100% | 1018.4 hPa | - | - | - | - |
| 1777860115 | 10.56° C | 100% | 1018.2 hPa | - | - | - | - |
| 1777858615 | 10° C | 100% | 1018.4 hPa | - | - | - | - |
| 1777857115 | 10° C | 100% | 1018.5 hPa | - | - | - | - |
| 1777855615 | 10.56° C | 100% | 1018.4 hPa | - | - | - | - |
| 1777854114 | 10.56° C | 100% | 1018.4 hPa | - | - | - | - |
| 1777853515 | 11.11° C | 100% | 1018.4 hPa | - | - | - | - |
| 1777852015 | 10° C | 100% | 1018.5 hPa | - | - | - | - |
| 1777850515 | 10.56° C | 100% | 1018.5 hPa | - | - | - | - |
| 1777849015 | 11.11° C | 100% | 1018.5 hPa | - | - | - | - |
| 1777847514 | 10° C | 100% | 1018.5 hPa | - | - | - | - |
| 1777846014 | 10.56° C | 100% | 1018.5 hPa | - | - | - | - |
| 1777844514 | 10.56° C | 100% | 1018.3 hPa | - | - | - | - |
| 1777843014 | 11.67° C | 100% | 1018.2 hPa | - | - | - | - |
| 1777841514 | 11.11° C | 100% | 1017.9 hPa | - | - | - | - |
| 1777840014 | 11.11° C | 100% | 1017.7 hPa | - | - | - | - |
| 1777838514 | 12.22° C | 100% | 1017.5 hPa | - | - | - | - |
| 1777837014 | 11.67° C | 100% | 1017.1 hPa | - | - | - | - |
| 1777835513 | 13.33° C | 100% | 1016.7 hPa | - | - | - | - |
| 1777834013 | 13.89° C | 100% | 1016.4 hPa | - | - | - | - |
| 1777832513 | 14.44° C | 100% | 1016.4 hPa | - | - | - | - |
* Rain since midnight (hover to see other rain measurements)
** Current wind speed in m/s (hover to see current wind gust speed)